Location: Theodore Roosevelt National Park
(46.9990°N, 103.4631°W)
Time: 14:26:33
(UTC-06:00)

Iridium 37 - Visible Passes

Search period start: 28 June 2016 00:00
Search period end: 08 July 2016 00:00
Orbit: 776 x 779 km, 86.4° (Epoch: 28 June)

Date Brightness Start Highest point End Pass type
(mag) Time Alt. Az. Time Alt. Az. Time Alt. Az.
28 Jun 6.7 00:23:10 10° NNE 00:27:55 34° ENE 00:30:15 23° ESE visible
28 Jun 6.5 02:03:57 10° NNW 02:08:36 33° W 02:10:43 24° SW visible
28 Jun 7.3 23:50:15 10° NNE 23:54:05 20° ENE 23:56:44 14° ESE visible
29 Jun 5.8 01:30:06 10° N 01:35:14 58° W 01:37:12 35° SSW visible
29 Jun 7.8 23:18:16 10° NE 23:20:06 12° ENE 23:21:56 10° E visible
30 Jun 5.5 00:56:29 10° N 01:01:44 81° E 01:03:41 40° S visible
30 Jun 7.6 02:39:03 10° NW 02:41:43 14° WNW 02:44:09 11° WSW visible
01 Jul 6.1 00:23:04 10° N 00:28:07 46° E 00:30:11 31° SE visible
01 Jul 7.0 02:04:24 10° NNW 02:08:32 24° W 02:10:39 19° WSW visible
01 Jul 6.9 23:49:56 10° NNE 23:54:23 27° ENE 23:56:42 20° ESE visible
02 Jul 6.3 01:30:21 10° NNW 01:35:14 41° W 01:37:10 30° SW visible
02 Jul 7.5 23:17:15 10° NNE 23:20:30 16° ENE 23:23:12 12° ESE visible
03 Jul 5.5 00:56:36 10° N 01:01:49 73° W 01:03:40 40° SSW visible
04 Jul 5.6 00:23:04 10° N 00:28:17 65° E 00:30:11 38° SSE visible
04 Jul 7.4 02:05:03 10° NW 02:08:26 18° WNW 02:10:39 14° WSW visible
04 Jul 6.4 23:49:45 10° N 23:54:37 37° E 23:56:43 27° SE visible
05 Jul 6.8 01:30:43 10° NNW 01:35:13 30° W 01:37:11 23° WSW visible
05 Jul 7.1 23:16:45 10° NNE 23:20:49 22° ENE 23:23:14 17° ESE visible
06 Jul 6.0 00:56:48 10° NNW 01:01:52 52° W 01:03:42 35° SW visible
06 Jul 7.7 22:44:25 10° NE 22:46:53 13° ENE 22:49:19 10° E visible
07 Jul 5.5 00:23:08 10° N 00:28:24 90° W 00:30:15 42° S visible
07 Jul 7.8 02:06:08 10° NW 02:08:17 13° WNW 02:10:27 10° W visible
07 Jul 5.9 23:49:41 10° N 23:54:48 52° E 23:56:47 34° SE visible
